Weather History for Paynesville, MN

Change the Weather History Date:

Tuesday, December 18, 2012

  Actual Average (KLJF) Record (KLJF)
Temperature  
Mean Temperature 24 °F -  
Max Temperature 27 °F 25 °F 48 °F (2011)
Min Temperature 21 °F 8 °F -29 °F (1983)
Degree Days  
Heating Degree Days 42    
Moisture  
Dew Point 23 °F    
Average Humidity 95    
Maximum Humidity 96    
Minimum Humidity 91    
Precipitation  
Precipitation 0.00 in - - ()
Sea Level Pressure  
Sea Level Pressure 29.67 in    
Wind  
Wind Speed 4 mph (ESE)    
Max Wind Speed 8 mph    
Max Gust Speed -    
Visibility 3 miles    
Events Snow    
Averages and records for this station are not official NWS values.
T = Trace of Precipitation, MM = Missing Value Source: NWS Daily Summary

Daily Weather History Graph

Daily Weather History Graph

Search for Another Location

Airport:

Trip Planner

Search our weather history database for the weather conditions in past years. The results will help you decide how hot, cold, wet, or windy it might be!

Date:

Astronomy

Dec. 18, 2012 Rise Set
Actual Time 7:54 AM CST 4:37 PM CST
Civil Twilight 7:19 AM CST 5:11 PM CST
Nautical Twilight 6:42 AM CST 5:49 PM CST
Astronomical Twilight 6:06 AM CST 6:25 PM CST
Moon 11:18 AM CST (12/18) 11:21 PM CST (12/18)
Length of Visible Light 9h 51m
Length of Day
8h 43m
Waxing Crescent, 35% of the Moon is Illuminated
Dec 18
Waxing Crescent
Dec 19
First Quarter
Dec 28
Full
Jan 4
Last Quarter
Jan 11
New

Hourly Weather History & Observations

Time (CST) Temp. Windchill Dew Point Humidity Pressure Visibility Wind Dir Wind Speed Gust Speed Precip Events Conditions
12:13 AM 21.6 °F 15.3 °F 20.3 °F 95% 29.65 in 4.0 mi ESE 4.6 mph - N/A Snow Light Snow
12:33 AM 21.7 °F 15.5 °F 20.7 °F 96% 29.65 in 5.0 mi East 4.6 mph - N/A Snow Light Snow
12:54 AM 21.7 °F 14.3 °F 20.7 °F 96% 29.64 in 5.0 mi East 5.8 mph - N/A   Overcast
1:13 AM 21.7 °F 15.5 °F 20.8 °F 96% 29.64 in 5.0 mi East 4.6 mph - N/A   Overcast
1:33 AM 21.9 °F 15.7 °F 21.0 °F 96% 29.64 in 4.0 mi East 4.6 mph - N/A   Overcast
1:53 AM 22.1 °F 14.7 °F 21.2 °F 96% 29.64 in 4.0 mi ESE 5.8 mph - N/A   Overcast
2:13 AM 22.1 °F 17.4 °F 21.2 °F 96% 29.63 in 4.0 mi East 3.5 mph - N/A   Overcast
2:33 AM 22.1 °F 14.7 °F 21.2 °F 96% 29.63 in 4.0 mi ESE 5.8 mph - N/A   Overcast
2:53 AM 22.1 °F 13.7 °F 21.2 °F 96% 29.63 in 3.0 mi ESE 6.9 mph - N/A   Overcast
3:13 AM 22.3 °F 13.9 °F 21.4 °F 96% 29.62 in 3.0 mi ESE 6.9 mph - N/A   Overcast
3:33 AM 22.5 °F 15.1 °F 21.6 °F 96% 29.62 in 3.0 mi ESE 5.8 mph - N/A   Overcast
3:53 AM 22.6 °F 15.3 °F 21.7 °F 96% 29.62 in 3.0 mi ESE 5.8 mph - N/A   Overcast
4:13 AM 22.6 °F 16.5 °F 21.7 °F 96% 29.62 in 3.0 mi ESE 4.6 mph - N/A   Overcast
4:34 AM 22.6 °F 16.5 °F 21.7 °F 96% 29.62 in 3.0 mi ESE 4.6 mph - N/A   Overcast
4:53 AM 22.6 °F 16.5 °F 21.7 °F 96% 29.62 in 3.0 mi East 4.6 mph - N/A   Overcast
5:13 AM 22.8 °F 16.7 °F 21.9 °F 96% 29.62 in 3.0 mi East 4.6 mph - N/A   Overcast
5:33 AM 22.8 °F 16.7 °F 21.9 °F 96% 29.61 in 2.5 mi East 4.6 mph - N/A   Overcast
5:53 AM 22.8 °F 15.5 °F 21.9 °F 96% 29.61 in 3.0 mi East 5.8 mph - N/A   Overcast
6:13 AM 22.8 °F 18.2 °F 21.9 °F 96% 29.62 in 3.0 mi East 3.5 mph - N/A   Overcast
6:33 AM 22.8 °F - 21.9 °F 96% 29.62 in 3.0 mi Calm Calm - N/A   Overcast
6:53 AM 23.0 °F 17.0 °F 22.1 °F 96% 29.62 in 3.0 mi East 4.6 mph - N/A   Overcast
7:14 AM 22.8 °F 16.7 °F 21.7 °F 96% 29.62 in 4.0 mi ENE 4.6 mph - N/A   Overcast
7:33 AM 22.8 °F 18.2 °F 21.7 °F 96% 29.62 in 4.0 mi ENE 3.5 mph - N/A   Overcast
7:53 AM 22.8 °F 16.7 °F 21.6 °F 95% 29.62 in 3.0 mi East 4.6 mph - N/A   Overcast
8:13 AM 22.8 °F 15.5 °F 21.7 °F 96% 29.62 in 2.0 mi East 5.8 mph - N/A   Overcast
8:33 AM 23.0 °F - 21.7 °F 95% 29.63 in 2.0 mi Calm Calm - N/A   Overcast
8:54 AM 23.0 °F - 21.9 °F 96% 29.65 in 1.8 mi Calm Calm - N/A   Overcast
9:13 AM 23.0 °F - 21.7 °F 95% 29.65 in 1.8 mi Calm Calm - N/A   Overcast
9:33 AM 23.0 °F 18.4 °F 21.9 °F 96% 29.65 in 1.8 mi ENE 3.5 mph - N/A   Overcast
9:53 AM 23.0 °F 17.0 °F 21.9 °F 96% 29.65 in 1.5 mi ENE 4.6 mph - N/A   Overcast
10:14 AM 23.0 °F 18.4 °F 21.7 °F 95% 29.66 in 1.8 mi East 3.5 mph - N/A   Overcast
10:33 AM 23.4 °F 17.4 °F 22.1 °F 95% 29.66 in 1.5 mi ESE 4.6 mph - N/A   Overcast
10:53 AM 23.7 °F - 22.1 °F 94% 29.66 in 1.5 mi Calm Calm - N/A   Overcast
11:13 AM 23.9 °F - 22.5 °F 94% 29.66 in 1.5 mi Calm Calm - N/A   Overcast
11:33 AM 23.9 °F - 22.6 °F 95% 29.66 in 1.5 mi Calm Calm - N/A   Overcast
11:53 AM 24.4 °F 18.6 °F 23.0 °F 94% 29.67 in 2.0 mi SE 4.6 mph - N/A   Overcast
12:14 PM 24.4 °F - 23.0 °F 94% 29.66 in 2.0 mi Calm Calm - N/A   Overcast
12:33 PM 24.3 °F - 22.8 °F 94% 29.66 in 1.8 mi Calm Calm - N/A   Overcast
12:53 PM 24.6 °F - 23.0 °F 94% 29.67 in 1.8 mi Calm Calm - N/A   Overcast
1:13 PM 24.8 °F - 23.0 °F 93% 29.66 in 1.8 mi Calm Calm - N/A   Overcast
1:33 PM 24.8 °F - 23.0 °F 93% 29.66 in 1.8 mi Calm Calm - N/A   Overcast
1:53 PM 25.3 °F - 23.4 °F 92% 29.66 in 1.8 mi Calm Calm - N/A   Overcast
2:13 PM 25.0 °F - 23.0 °F 92% 29.66 in 2.0 mi Calm Calm - N/A   Overcast
2:33 PM 25.2 °F - 23.4 °F 93% 29.67 in 2.0 mi Calm Calm - N/A   Overcast
2:53 PM 25.2 °F - 23.0 °F 91% 29.67 in 2.5 mi Calm Calm - N/A   Overcast
3:13 PM 25.7 °F - 23.5 °F 92% 29.67 in 2.0 mi Calm Calm - N/A   Overcast
3:34 PM 25.7 °F - 23.7 °F 92% 29.69 in 2.0 mi Calm Calm - N/A   Overcast
3:53 PM 25.5 °F - 23.7 °F 93% 29.69 in 2.5 mi Calm Calm - N/A   Overcast
4:13 PM 25.5 °F - 23.7 °F 93% 29.69 in 2.0 mi Calm Calm - N/A   Overcast
4:34 PM 25.7 °F - 23.9 °F 93% 29.69 in 2.5 mi Calm Calm - N/A   Overcast
4:53 PM 25.5 °F - 23.9 °F 94% 29.70 in 3.0 mi Calm Calm - N/A   Overcast
5:14 PM 25.2 °F - 23.9 °F 95% 29.70 in 2.5 mi Calm Calm - N/A   Overcast
5:33 PM 24.8 °F - 23.7 °F 96% 29.71 in 2.0 mi Calm Calm - N/A   Overcast
5:53 PM 24.8 °F 17.9 °F 23.7 °F 96% 29.71 in 2.0 mi SE 5.8 mph - N/A   Overcast
6:14 PM 24.6 °F 18.8 °F 23.5 °F 96% 29.72 in 2.0 mi SE 4.6 mph - N/A   Overcast
6:33 PM 24.6 °F 17.7 °F 23.7 °F 96% 29.72 in 2.0 mi SSE 5.8 mph - N/A   Overcast
6:53 PM 24.8 °F 17.9 °F 23.9 °F 96% 29.73 in 2.0 mi SE 5.8 mph - N/A   Overcast
7:14 PM 24.6 °F 18.8 °F 23.7 °F 96% 29.74 in 2.0 mi SSE 4.6 mph - N/A   Overcast
7:33 PM 24.4 °F 16.5 °F 23.5 °F 96% 29.74 in 2.0 mi SSE 6.9 mph - N/A Snow Light Snow
7:53 PM 24.4 °F 16.5 °F 23.5 °F 96% 29.75 in 1.8 mi SSE 6.9 mph - N/A Snow Light Snow
8:14 PM 24.6 °F 17.7 °F 23.5 °F 96% 29.75 in 2.0 mi SE 5.8 mph - N/A Snow Light Snow
8:34 PM 24.6 °F 17.7 °F 23.5 °F 96% 29.75 in 2.5 mi SSE 5.8 mph - N/A Snow Light Snow
8:53 PM 24.8 °F 16.1 °F 23.5 °F 95% 29.76 in 3.0 mi SSE 8.1 mph - N/A   Overcast
9:13 PM 24.8 °F 16.9 °F 23.7 °F 96% 29.75 in 3.0 mi SSE 6.9 mph - N/A   Overcast
9:34 PM 25.2 °F 17.3 °F 23.9 °F 95% 29.75 in 3.0 mi SSE 6.9 mph - N/A   Overcast
9:53 PM 25.2 °F 17.3 °F 23.9 °F 95% 29.75 in 3.0 mi SSE 6.9 mph - N/A   Overcast
10:13 PM 25.5 °F 17.8 °F 24.3 °F 95% 29.75 in 3.0 mi South 6.9 mph - N/A   Overcast
10:34 PM 25.7 °F 20.1 °F 24.4 °F 95% 29.76 in 3.0 mi South 4.6 mph - N/A   Overcast
10:53 PM 25.7 °F 19.0 °F 24.8 °F 96% 29.77 in 3.0 mi South 5.8 mph - N/A   Overcast
11:13 PM 26.2 °F 20.7 °F 25.2 °F 96% 29.77 in 3.0 mi SSE 4.6 mph - N/A   Overcast
11:33 PM 26.6 °F 21.2 °F 25.7 °F 96% 29.77 in 2.5 mi South 4.6 mph - N/A   Overcast
11:54 PM 27.5 °F 21.1 °F 26.6 °F 96% 29.78 in 3.0 mi SSW 5.8 mph - N/A   Overcast